Location: Devargunta
(16.7631°N, 80.9077°E)
Time: 19:47:13
(UTC+00:00)

GPS 2-12 Rocket1 - Pass Details

Date: 19 January 2021
Orbit: 586 x 651 km, 20.0° (Epoch: 03 March)

Event Time Altitude Azimuth Distance (km) Brightness Sun altitude
Rises 13:15:18 0° 268° (W) 2,806 8.1 -12.1°
Reaches altitude 10° 13:17:39 10° 271° (W) 1,899 6.8 -12.6°
Maximum altitude 13:22:02 65° 353° (N) 641 3.1 -13.6°
Enters shadow 13:24:39 23° 69° (ENE) 1,237 4.0 -14.2°
